Flag for Isle of Man Weather past 2 weeks in Ramsey, Isle of Man

Now
41 °F

Passing clouds.


Feels Like: 38 °F
Forecast: 41 / 47 °F
Wind: 5 mph from North

Location: Isle Of Man / Ronaldsway Airport

Current Time: Apr 26, 2015 at 2:34:30 AM

Latest Report: Apr 26, 2015 at 1:50 AM


Visibility: N/A

Pressure: 29.83 "Hg

Humidity: 61%

Dew point: 28 °F

Location of RamseyLocation

Historic Weather in Ramsey — Graph

°F

Ramsey temperature yesterday

Maximum temperature yesterday: 50 °F (at 5:50 AM)
Minimum temperature yesterday: 43 °F (at 10:20 AM)
Average temperature yesterday: 46 °F

Past Weeks' High & Low Weather Summary

 TemperatureHumidityPressure
High63 °F (Apr 23, 11:20 AM)100% (Apr 12, 8:50 AM)30.63 "Hg (Apr 12, 8:50 AM)
Low36 °F (Apr 13, 3:50 AM)39% (Apr 21, 6:50 PM)29.50 "Hg (Apr 25, 3:50 AM)
Average48 °F75%30.16 "Hg
* Reported Apr 11 12:50 AM — Apr 26 12:50 AM, Ramsey, Weather by CustomWeather, © 2015

Note: Actual official high and low records may vary slightly from our data, if they occured in-between our weather recording intervals... More about our weather records

Advertising

Ramsey weather history for previous 24 hours

 ConditionsComfort  
Time TempWeatherWind HumidityBarometerVisibility
12:50 AM
Sun, Apr 26
41 °FPassing clouds.5 mph66%29.80 "HgN/A
11:50 PM
Sat, Apr 25
43 °FPassing clouds.8 mph57%29.80 "HgN/A
10:50 PM43 °FPassing clouds.10 mph61%29.80 "HgN/A
9:50 PM45 °FPassing clouds.10 mph61%29.77 "HgN/A
8:50 PM45 °FPassing clouds.13 mph61%29.77 "HgN/A
8:20 PM46 °FPassing clouds.13 mph62%29.74 "HgN/A
7:50 PM46 °FPassing clouds.12 mph62%29.74 "HgN/A
7:20 PM48 °FPassing clouds.14 mph58%29.74 "HgN/A
6:50 PM48 °FPassing clouds.16 mph58%29.71 "HgN/A
6:20 PM48 °FPassing clouds.13 mph58%29.71 "HgN/A
5:50 PM48 °FPassing clouds.13 mph62%29.71 "HgN/A
5:20 PM46 °FPassing clouds.15 mph66%29.71 "HgN/A
4:50 PM46 °FPassing clouds.16 mph57%29.71 "HgN/A
4:20 PM48 °FPassing clouds.17 mph50%29.68 "HgN/A
3:50 PM46 °FPassing clouds.15 mph57%29.68 "HgN/A
3:20 PM48 °FPassing clouds.13 mph54%29.68 "HgN/A
2:50 PM46 °FPassing clouds.15 mph53%29.68 "HgN/A
2:20 PM48 °FPassing clouds.14 mph43%29.68 "HgN/A
1:50 PM46 °FPassing clouds.15 mph50%29.65 "HgN/A
1:20 PM45 °FPassing clouds.13 mph57%29.65 "HgN/A
12:50 PM45 °FPassing clouds.10 mph61%29.65 "HgN/A
12:20 PM43 °FLight rain. Overcast.10 mph61%29.65 "HgN/A
11:50 AM43 °FLight rain. Overcast.9 mph76%29.62 "HgN/A
11:20 AM43 °FLight rain. Overcast.15 mph76%29.62 "HgN/A
10:50 AM43 °FLight rain. Overcast.18 mph81%29.59 "HgN/A
10:20 AM43 °FLight rain. Overcast.20 mph87%29.59 "HgN/A
9:50 AM45 °FLight rain. Low clouds.21 mph81%29.56 "HgN/A
9:20 AM45 °FPartly sunny.17 mph81%29.56 "HgN/A
8:50 AM45 °FLight rain. Partly sunny.15 mph87%29.56 "HgN/A
8:20 AM45 °FLight rain. Partly sunny.14 mph93%29.53 "HgN/A
7:50 AM46 °FLight rain. Mostly cloudy.8 mph87%29.53 "HgN/A
7:20 AM48 °FLight rain. Cloudy.12 mph94%29.50 "HgN/A
6:50 AM50 °FPassing clouds.15 mph88%29.50 "HgN/A
6:20 AM48 °FPassing clouds.15 mph94%29.50 "HgN/A
5:50 AM50 °FPassing clouds.16 mph94%29.50 "HgN/A
4:50 AM48 °FPassing clouds.15 mph100%29.50 "HgN/A
3:50 AM48 °FPassing clouds.16 mph94%29.50 "HgN/A
2:50 AM48 °FPassing clouds.15 mph100%29.53 "HgN/A
Weather by CustomWeather, © 2015

See weather overviewHow to use our weather pages